Regional Weather Roundup
Issued by NWS

Home | Current Version | Previous Version | Text Only | Print | Product List | Glossary On
Versions: 1 2 3 4 5 6 7 8 9 10 11 12 13 14 15 16 17 18 19 20 21 22 23 24 25 26 27 28 29 30 31 32 33 34 35 36 37 38 39 40 41 42 43 44 45 46 47 48 49
000
ASUS45 KBOU 241407
RWRCO

WEATHER ROUNDUP FOR COLORADO
NATIONAL WEATHER SERVICE DENVER/BOULDER CO
800 AM MDT THU JUL 24 2014

NOTE: "FAIR" INDICATES FEW OR NO CLOUDS BELOW 12000 FEET WITH NO
SIGNIFICANT WEATHER AND/OR OBSTRUCTIONS TO VISIBILITY.

COZ001>005-013-030-031-241500-
...NORTHWEST COLORADO...

CITY           SKY/WX    TMP DP  RH WIND       PRES   REMARKS
CRAIG          MOSUNNY   63  49  60 NE5       30.28R
HAYDEN         MOSUNNY   70  43  37 E8        30.30S
MEEKER         MOSUNNY   68  45  43 CALM      30.31R
MOUNT WERNER   NOT AVBL
STEAMBOAT SPGS MOSUNNY   62  45  53 CALM      30.34R
WALDEN         PTSUNNY   64  41  42 SE7       30.40F
$$

COZ006>008-011-241500-
...WEST CENTRAL VALLEYS...

CITY           SKY/WX    TMP DP  RH WIND       PRES   REMARKS
GRAND JUNCTION PTSUNNY   81  48  31 S18       30.20R
MONTROSE       PTSUNNY   67  60  78 SE8       30.31S
EAGLE          MOSUNNY   63  52  67 CALM      30.39R
RIFLE          MOSUNNY   70  49  47 N3        30.27R
DELTA          LGT RAIN  74  56  52 NE7       30.27F
NUCLA          PTSUNNY   73  48  40 E5        30.35R
$$

COZ017>023-064>068-241500-
...SOUTHWEST COLORADO...

CITY           SKY/WX    TMP DP  RH WIND       PRES   REMARKS
DURANGO        SUNNY     63  52  67 CALM      30.41S
CORTEZ         SUNNY     76  51  41 CALM      30.32R
PAGOSA SPRINGS SUNNY     62  50  65 CALM      30.50R
TELLURIDE      MOSUNNY   66  45  45 SE9       30.55S
WOLF CREEK PAS NOT AVBL
$$

COZ009-010-012-014-032>034-037-058>063-241500-
...CENTRAL COLORADO...

CITY           SKY/WX    TMP DP  RH WIND       PRES   REMARKS
ASPEN          PTSUNNY   66  47  50 SE6       30.45R
BUENA VISTA    MOSUNNY   62  46  56 E5        30.46S
COPPER MTN     MOSUNNY   59  37  44 SW5G17    30.77R
BERTHOUD PASS  FAIR      46  34  61 NW10G18   30.79S
COTTONWOOD PAS PTSUNNY   68  39  34 CALM      30.59S
GUNNISON       PTSUNNY   63  46  55 NW5       30.50R
KREMMLING      PTSUNNY   55  41  58 CALM      30.42S
LEADVILLE      MOSUNNY   55  45  68 CALM      30.59R
MONARCH PASS   MOSUNNY   50  39  66 SW18      30.86R
SALIDA         MOSUNNY  N/A N/A N/A S10G17    30.49S
SUNLIGHT       MOSUNNY   55  45  67 CALM      30.68R
WILKERSON PASS SUNNY     52  39  62 W9G16     30.70R
$$

COZ069>075-241500-
...SAN LUIS VALLEY/SANGRE DE CRISTO MOUNTAINS...

CITY           SKY/WX    TMP DP  RH WIND       PRES   REMARKS
ALAMOSA        SUNNY     61  49  64 CALM      30.46S
LA VETA PASS   SUNNY     55  41  58 SW16G26   30.59F
SAGUACHE       MOSUNNY   63  46  55 SE3       30.50S
$$

COZ035-036-038>040-241500-
...NORTHERN COLORADO FRONT RANGE...

CITY           SKY/WX    TMP DP  RH WIND       PRES   REMARKS
DENVER INTL AP MOSUNNY   78  49  35 SW8       30.14S
DMNS CITY PARK   N/A     76  53  45 S3        30.13F
AURORA         MOSUNNY   76  52  42 S8        30.17R
FRONT RANGE AP MOSUNNY   82  48  30 S12       30.15
ERIE MUNI ARPT SUNNY     73  54  50 CALM      30.11F
BOULDER MUN AP SUNNY     77  52  41 CALM      30.12
CENTENNIAL     MOSUNNY   78  47  33 SW8       30.18S
BROOMFIELD     MOSUNNY   73  50  43 CALM      30.16S
FORT COLLINS   MOSUNNY   72  54  53 CALM      30.12S
LONGMONT       MOSUNNY   76  54  45 CALM      30.12F
$$

COZ041-046-047-076>085-087-088-241500-
...PIKES PEAK/PALMER DIVIDE AND SOUTHERN FOOTHILLS...

CITY           SKY/WX    TMP DP  RH WIND       PRES   REMARKS
COLO. SPRINGS  MOSUNNY   73  59  61 SE3       30.25S
A. F. ACADEMY  SUNNY     70  56  60 VRB3      30.27S
ELLICOTT       SUNNY     72  54  53 S6        30.23F
FALCON         SUNNY     73  52  46 CALM      30.30S
FORT CARSON    SUNNY     70  57  63 N3        30.22S
LIMON          SUNNY     70  54  56 SE5       30.18F
MONUMENT HILL  SUNNY     73  45  35 S7        30.28F
TRINIDAD       SUNNY     74  51  44 W8        30.25F
$$

COZ042>045-048>051-090-091-241500-
...NORTHEAST COLORADO...

CITY           SKY/WX    TMP DP  RH WIND       PRES   REMARKS
GREELEY ARPT   MOSUNNY   66  54  63 NW5       30.10F
AKRON          SUNNY     80  50  34 S21G29    30.09F
BURLINGTON     SUNNY     75  60  59 SW9       30.11F
WRAY             N/A     78  61  54 SW10      30.05S
STERLING       SUNNY     75  64  69 W5        30.04S
HOLYOKE        SUNNY     75  66  73 S7        30.04S
FORT MORGAN    SUNNY     75  59  57 S8        30.08F
$$

COZ086-089-092>099-241500-
...SOUTHEAST COLORADO...

CITY           SKY/WX    TMP DP  RH WIND       PRES   REMARKS
PUEBLO         SUNNY     71  55  56 CALM      30.16R
LA JUNTA       SUNNY     79  54  41 SW14      30.14R
LAMAR          SUNNY     78  56  46 SW7       30.10S
SPRINGFIELD      N/A     79  55  43 SW12      30.17F
$$


USA.gov is the U.S. government's official web portal to all federal, state and local government web resources and services.